Terminal Aerodrome Forecast
Issued by NWS

Home | Current Version | Previous Version | Text Only | Print | Product List | Glossary On
Versions: 1 2 3 4 5 6 7 8 9 10 11 12 13 14 15 16 17 18
000
FTAK31 PAJN 301754 AAA
TAFAKT
TAF AMD
PAKT 301754Z 3018/3118 16018G30KT 5SM -RA BR OVC025 WS020/14050KT
     FM302100 15030G45KT 5SM RA BR OVC020 WS020/16060KT
     FM310000 15020G30KT 6SM -RA BR BKN020 OVC030 WS020/22030KT
     FM310300 12015KT P6SM -SHRA BKN025 OVC040
     FM310700 12011KT P6SM -SHRA BKN025 OVC040
      AMD LTD TO CLD VIS AND WIND 3106/3115=

USA.gov is the U.S. government's official web portal to all federal, state and local government web resources and services.